Location: Napier
(39.4830°S, 176.9170°E)
Time: 09:35:36
(UTC+13:00)

Cosmos 2333 Rocket - Pass Details

Date: 24 January 2019
Orbit: 840 x 862 km, 70.8° (Epoch: 16 February)

Event Time Altitude Azimuth Distance (km) Brightness Sun altitude
Exits shadow 23:35:01 70° 58° (ENE) 924 2.1 -26.0°
Maximum altitude 23:35:10 70° 70° (ENE) 922 2.1 -26.0°
Drops below altitude 10° 23:40:58 10° 152° (SSE) 2,526 5.1 -26.5°
Sets 23:43:27 0° 154° (SSE) 3,467 5.9 -26.7°
